Location: Boitzum
(52.1496°N, 9.6943°E)
Time: 00:53:11
(UTC+00:00)

Okean 3 - Pass Details

Date: 13 January 2026
Orbit: 542 x 564 km, 82.5° (Epoch: 17 February)

Event Time Altitude Azimuth Distance (km) Brightness Sun altitude
Exits shadow 05:38:26 17° 333° (NNW) 1,417 5.0 -15.5°
Maximum altitude 05:41:13 47° 266° (W) 734 3.5 -15.1°
Drops below altitude 10° 05:45:02 10° 192° (SSW) 1,806 6.0 -14.5°
Sets 05:47:13 0° 187° (S) 2,692 7.0 -14.2°
